• en France
  • Liste des pays
  • À 7 jours
  • Température de l'eau
  • Carte satellitaire
  • Carte météo
  • Widgets météo
  • user-avatar
    Se connecter

    Météo par heure à Dogondoutchi

    Ce jour, 23 Octobre, Mardi

    Heure Température Précipitation Vent Pression Humidité
    00:00 +31°C° 0 mm 2 m/s 738 mmHg 13%
    01:00 +31°C° 0 mm 2 m/s 737 mmHg 13%
    02:00 +30°C° 0 mm 2 m/s 737 mmHg 13%
    03:00 +30°C° 0 mm 2 m/s 737 mmHg 13%
    04:00 +29°C° 0 mm 2 m/s 737 mmHg 14%
    05:00 +29°C° 0 mm 2 m/s 738 mmHg 15%
    06:00 +29°C° 0 mm 2 m/s 738 mmHg 15%
    07:00 +32°C° 0 mm 2 m/s 738 mmHg 13%
    08:00 +36°C° 0 mm 2 m/s 739 mmHg 11%
    09:00 +39°C° 0 mm 2 m/s 740 mmHg 9%
    10:00 +42°C° 0 mm 3 m/s 739 mmHg 9%
    11:00 +43°C° 0 mm 4 m/s 738 mmHg 8%
    12:00 +46°C° 0 mm 5 m/s 738 mmHg 7%
    13:00 +46°C° 0 mm 5 m/s 737 mmHg 7%
    14:00 +46°C° 0 mm 5 m/s 737 mmHg 7%
    15:00 +46°C° 0 mm 6 m/s 736 mmHg 7%
    16:00 +43°C° 0 mm 5 m/s 736 mmHg 9%
    17:00 +41°C° 0 mm 4 m/s 736 mmHg 10%
    18:00 +38°C° 0 mm 3 m/s 736 mmHg 11%
    19:00 +37°C° 0 mm 3 m/s 736 mmHg 12%
    20:00 +36°C° 0 mm 3 m/s 737 mmHg 12%
    21:00 +35°C° 0 mm 3 m/s 737 mmHg 12%
    22:00 +35°C° 0 mm 3 m/s 737 mmHg 13%
    23:00 +34°C° 0 mm 3 m/s 737 mmHg 13%

    Demain, 24 Octobre, Mercredi

    Heure Température Précipitation Vent Pression Humidité
    00:00 +34°C° 0 mm 3 m/s 737 mmHg 14%
    01:00 +33°C° 0 mm 3 m/s 737 mmHg 14%
    02:00 +31°C° 0 mm 3 m/s 737 mmHg 15%
    03:00 +30°C° 0 mm 3 m/s 736 mmHg 15%
    04:00 +30°C° 0 mm 3 m/s 737 mmHg 15%
    05:00 +30°C° 0 mm 3 m/s 737 mmHg 16%
    06:00 +29°C° 0 mm 3 m/s 737 mmHg 16%
    07:00 +33°C° 0 mm 3 m/s 737 mmHg 14%
    08:00 +36°C° 0 mm 3 m/s 738 mmHg 12%
    09:00 +39°C° 0 mm 2 m/s 739 mmHg 11%
    10:00 +40°C° 0 mm 3 m/s 738 mmHg 10%
    11:00 +42°C° 0 mm 3 m/s 737 mmHg 10%
    12:00 +44°C° 0 mm 3 m/s 737 mmHg 9%
    13:00 +44°C° 0 mm 3 m/s 736 mmHg 9%
    14:00 +43°C° 0 mm 2 m/s 735 mmHg 9%
    15:00 +43°C° 0 mm 2 m/s 735 mmHg 9%
    16:00 +41°C° 0 mm 1 m/s 735 mmHg 11%
    17:00 +37°C° 0 mm 1 m/s 735 mmHg 13%
    18:00 +34°C° 0 mm 1 m/s 735 mmHg 15%
    19:00 +34°C° 0 mm 1 m/s 735 mmHg 15%
    20:00 +33°C° 0 mm 1 m/s 736 mmHg 16%
    21:00 +34°C° 0 mm 2 m/s 736 mmHg 17%
    22:00 +32°C° 0 mm 1 m/s 736 mmHg 18%
    23:00 +32°C° 0 mm 1 m/s 736 mmHg 19%

    Après-demain, 25 Octobre, Jeudi

    Heure Température Précipitation Vent Pression Humidité
    00:00 +31°C° 0 mm 1 m/s 736 mmHg 20%
    01:00 +31°C° 0 mm 1 m/s 735 mmHg 20%
    02:00 +31°C° 0 mm 2 m/s 735 mmHg 20%
    03:00 +31°C° 0 mm 2 m/s 735 mmHg 20%
    04:00 +30°C° 0 mm 3 m/s 735 mmHg 24%
    05:00 +30°C° 0 mm 3 m/s 736 mmHg 28%
    06:00 +29°C° 0 mm 4 m/s 736 mmHg 32%
    07:00 +32°C° 0 mm 4 m/s 737 mmHg 32%
    08:00 +35°C° 0 mm 5 m/s 737 mmHg 32%
    09:00 +37°C° 0 mm 5 m/s 738 mmHg 32%
    10:00 +40°C° 0 mm 4 m/s 737 mmHg 28%
    11:00 +41°C° 0 mm 4 m/s 737 mmHg 24%
    12:00 +43°C° 0 mm 3 m/s 736 mmHg 19%
    13:00 +42°C° 0 mm 2 m/s 736 mmHg 17%
    14:00 +43°C° 0 mm 1 m/s 735 mmHg 15%
    15:00 +43°C° 0 mm 1 m/s 734 mmHg 13%
    16:00 +41°C° 0 mm 1 m/s 734 mmHg 15%
    17:00 +39°C° 0 mm 1 m/s 734 mmHg 17%
    18:00 +35°C° 0 mm 1 m/s 735 mmHg 19%
    19:00 +35°C° 0 mm 1 m/s 735 mmHg 19%
    20:00 +36°C° 0 mm 2 m/s 736 mmHg 20%
    21:00 +35°C° 0 mm 2 m/s 736 mmHg 20%
    22:00 +35°C° 0 mm 2 m/s 736 mmHg 22%
    23:00 +34°C° 0 mm 2 m/s 736 mmHg 24%

    26 Octobre, Vendredi

    Heure Température Précipitation Vent Pression Humidité
    00:00 +32°C° 0 mm 2 m/s 736 mmHg 27%
    01:00 +33°C° 0 mm 3 m/s 735 mmHg 28%
    02:00 +33°C° 0 mm 3 m/s 735 mmHg 30%
    03:00 +33°C° 0 mm 3 m/s 735 mmHg 32%
    04:00 +31°C° 0 mm 3 m/s 735 mmHg 35%
    05:00 +30°C° 0 mm 3 m/s 736 mmHg 38%
    06:00 +30°C° 0 mm 4 m/s 736 mmHg 41%
    07:00 +33°C° 0 mm 4 m/s 737 mmHg 39%
    08:00 +36°C° 0 mm 5 m/s 737 mmHg 36%
    09:00 +39°C° 0 mm 6 m/s 738 mmHg 34%
    10:00 +40°C° 0 mm 5 m/s 737 mmHg 30%
    11:00 +42°C° 0 mm 4 m/s 737 mmHg 26%
    12:00 +43°C° 0 mm 4 m/s 736 mmHg 22%
    13:00 +43°C° 0 mm 3 m/s 736 mmHg 21%
    14:00 +42°C° 0 mm 2 m/s 735 mmHg 19%
    15:00 +42°C° 0 mm 1 m/s 735 mmHg 18%
    16:00 +41°C° 0 mm 1 m/s 735 mmHg 19%
    17:00 +40°C° 0 mm 1 m/s 735 mmHg 21%
    18:00 +39°C° 0 mm 2 m/s 736 mmHg 22%
    19:00 +38°C° 0 mm 2 m/s 736 mmHg 23%
    20:00 +38°C° 0 mm 2 m/s 737 mmHg 24%
    21:00 +37°C° 0 mm 3 m/s 737 mmHg 25%
    22:00 +37°C° 0 mm 3 m/s 737 mmHg 26%
    23:00 +36°C° 0 mm 3 m/s 736 mmHg 27%

    27 Octobre, Samedi

    Heure Température Précipitation Vent Pression Humidité
    00:00 +36°C° 0 mm 3 m/s 736 mmHg 28%
    01:00 +35°C° 0 mm 3 m/s 736 mmHg 30%
    02:00 +35°C° 0 mm 3 m/s 736 mmHg 32%
    03:00 +34°C° 0 mm 3 m/s 736 mmHg 34%
    04:00 +34°C° 0 mm 3 m/s 736 mmHg 35%
    05:00 +34°C° 0 mm 3 m/s 737 mmHg 36%
    06:00 +33°C° 0 mm 3 m/s 738 mmHg 38%
    07:00 +35°C° 0 mm 4 m/s 738 mmHg 36%
    08:00 +37°C° 0 mm 5 m/s 738 mmHg 34%
    09:00 +39°C° 0 mm 5 m/s 739 mmHg 32%
    10:00 +40°C° 0 mm 4 m/s 738 mmHg 29%
    11:00 +41°C° 0 mm 4 m/s 737 mmHg 27%
    12:00 +43°C° 0 mm 3 m/s 737 mmHg 25%
    13:00 +42°C° 0 mm 2 m/s 736 mmHg 24%
    14:00 +42°C° 0 mm 1 m/s 736 mmHg 22%
    15:00 +39°C° 0 mm 0 m/s 735 mmHg 21%
    16:00 +41°C° 0 mm 1 m/s 735 mmHg 22%
    17:00 +40°C° 0 mm 1 m/s 736 mmHg 24%
    18:00 +39°C° 0 mm 1 m/s 736 mmHg 25%
    19:00 +37°C° 0 mm 1 m/s 737 mmHg 26%
    20:00 +37°C° 0 mm 1 m/s 737 mmHg 27%
    21:00 +36°C° 0 mm 1 m/s 737 mmHg 28%
    22:00 +36°C° 0 mm 1 m/s 737 mmHg 30%
    23:00 +36°C° 0 mm 2 m/s 737 mmHg 31%

    28 Octobre, Dimanche

    Heure Température Précipitation Vent Pression Humidité
    00:00 +36°C° 0 mm 2 m/s 736 mmHg 32%
    01:00 +35°C° 0 mm 2 m/s 736 mmHg 34%
    02:00 +35°C° 0 mm 2 m/s 736 mmHg 35%
    03:00 +35°C° 0 mm 2 m/s 736 mmHg 37%
    04:00 +34°C° 0 mm 3 m/s 737 mmHg 40%
    05:00 +34°C° 0 mm 4 m/s 737 mmHg 43%
    06:00 +33°C° 0 mm 5 m/s 738 mmHg 47%
    07:00 +35°C° 0 mm 5 m/s 738 mmHg 45%
    08:00 +36°C° 0 mm 6 m/s 739 mmHg 43%
    09:00 +38°C° 0 mm 6 m/s 739 mmHg 41%
    10:00 +39°C° 0 mm 5 m/s 738 mmHg 37%
    11:00 +41°C° 0 mm 4 m/s 738 mmHg 33%
    12:00 +42°C° 0 mm 3 m/s 737 mmHg 29%
    13:00 +41°C° 0 mm 2 m/s 737 mmHg 27%
    14:00 +41°C° 0 mm 1 m/s 736 mmHg 26%
    15:00 +41°C° 0 mm 1 m/s 736 mmHg 24%
    16:00 +40°C° 0 mm 1 m/s 736 mmHg 26%
    17:00 +39°C° 0 mm 1 m/s 736 mmHg 29%
    18:00 +36°C° 0 mm 1 m/s 736 mmHg 31%
    19:00 +36°C° 0 mm 1 m/s 736 mmHg 32%
    20:00 +35°C° 0 mm 1 m/s 737 mmHg 33%
    21:00 +35°C° 0 mm 1 m/s 737 mmHg 33%
    22:00 +36°C° 0 mm 2 m/s 737 mmHg 33%
    23:00 +36°C° 0 mm 2 m/s 736 mmHg 33%

    29 Octobre, Lundi

    Heure Température Précipitation Vent Pression Humidité
    00:00 +36°C° 0 mm 3 m/s 736 mmHg 33%
    01:00 +35°C° 0 mm 3 m/s 736 mmHg 34%
    02:00 +34°C° 0 mm 3 m/s 736 mmHg 35%
    03:00 +34°C° 0 mm 2 m/s 735 mmHg 36%
    04:00 +34°C° 0 mm 2 m/s 736 mmHg 36%
    05:00 +32°C° 0 mm 2 m/s 736 mmHg 36%
    06:00 +32°C° 0 mm 2 m/s 737 mmHg 36%
    07:00 +35°C° 0 mm 2 m/s 737 mmHg 31%
    08:00 +37°C° 0 mm 3 m/s 738 mmHg 26%
    09:00 +39°C° 0 mm 3 m/s 738 mmHg 21%
    10:00 +42°C° 0 mm 3 m/s 737 mmHg 19%
    11:00 +43°C° 0 mm 4 m/s 736 mmHg 17%
    12:00 +45°C° 0 mm 4 m/s 736 mmHg 15%
    13:00 +46°C° 0 mm 5 m/s 735 mmHg 14%
    14:00 +46°C° 0 mm 5 m/s 735 mmHg 14%
    15:00 +46°C° 0 mm 5 m/s 734 mmHg 13%
    16:00 +44°C° 0 mm 4 m/s 734 mmHg 16%
    17:00 +42°C° 0 mm 4 m/s 734 mmHg 18%
    18:00 +39°C° 0 mm 3 m/s 735 mmHg 20%
    19:00 +38°C° 0 mm 3 m/s 735 mmHg 23%
    20:00 +37°C° 0 mm 3 m/s 735 mmHg 26%
    21:00 +36°C° 0 mm 3 m/s 736 mmHg 28%
    22:00 +36°C° 0 mm 3 m/s 736 mmHg 30%
    23:00 +35°C° 0 mm 3 m/s 736 mmHg 32%
    Voir plus